EW1433 Weather Reports


Display with metric or nautical units.
time (UTC)temp
F
wind
direction
speed
MPH
gust
MPH
rain 1hr
in
rain 24hr
in
rain mn
in
humidity
%
barometer
mb
20260505185020 59 316 0.0 0.0 0.00 0.00 0.00 68 1016.0
20260505184520 59 24 0.0 0.0 0.00 0.00 0.00 68 1016.0
20260505184019 59 313 0.0 0.0 0.00 0.00 0.00 69 1016.0
20260505183520 59 312 0.0 0.0 0.00 0.00 0.00 69 1015.9
20260505183020 58 312 0.0 0.0 0.00 0.00 0.00 68 1016.0
20260505182521 58 0.0 0.0 0.00 0.00 0.00 68 1016.0
20260505182020 58 300 0.0 0.0 0.00 0.00 0.00 68 1016.0
20260505181508 58 300 0.0 0.0 0.00 0.00 0.00 68 1016.0
20260505181006 0 312 0.0 0.0 0.00 0.00 0.00 1015.9
20260505180523 58 340 0.0 0.0 0.00 0.00 0.00 68 1015.9
20260505180516 58 340 0.0 0.0 0.00 0.00 0.00 68 1015.9
20260505175505 58 340 0.0 0.0 0.00 0.00 0.00 68 1015.8
20260505175007 58 340 0.0 0.0 0.00 0.00 0.00 68 1015.8
20260505174506 58 340 0.0 0.0 0.00 0.00 0.00 68 1015.7
20260505174006 58 340 0.0 0.0 0.00 0.00 0.00 68 1015.7
20260505173506 58 340 0.0 0.0 0.00 0.00 0.00 68 1015.6
20260505173006 57 340 0.0 0.0 0.00 0.00 0.00 67 1015.6
20260505172506 58 340 0.0 0.0 0.00 0.00 0.00 68 1015.4
20260505172007 0 340 0.0 0.0 0.00 0.00 0.00 1015.5
20260505171506 58 340 0.0 0.0 0.00 0.00 0.00 69 1015.5
20260505171236 58 340 0.0 0.0 0.00 0.00 0.00 69 1015.4
20260505170506 57 340 0.0 0.0 0.00 0.00 0.00 68 1015.4
20260505170008 57 0.0 0.0 0.00 0.00 0.00 68 1015.4
20260505165506 57 151 0.0 0.0 0.00 0.00 0.00 68 1015.4
20260505165006 57 151 0.0 0.0 0.00 0.00 0.00 69 1015.3
20260505164740 57 151 0.0 0.0 0.00 0.00 0.00 68 1015.4
20260505164001 57 151 0.0 0.0 0.00 0.00 0.00 70 1015.3
20260505163757 57 151 0.0 0.0 0.00 0.00 0.00 70 1015.2
20260505163002 57 151 0.0 0.0 0.00 0.00 0.00 70 1015.2
20260505162501 56 151 0.0 0.0 0.00 0.00 0.00 70 1015.3
20260505162246 56 151 0.0 0.0 0.00 0.00 0.00 70 1015.4
20260505161501 56 148 0.0 0.0 0.00 0.00 0.00 70 1015.3
20260505161252 56 148 0.0 0.0 0.00 0.00 0.00 70 1015.2
20260505160756 56 148 0.0 0.0 0.00 0.00 0.00 71 1015.2
20260505152936 55 148 0.0 1.0 0.00 0.00 0.00 72 1015.1
20260505152434 55 148 0.0 0.0 0.00 0.00 0.00 73 1015.2
20260505151935 55 147 0.0 0.0 0.00 0.00 0.00 74 1015.0
20260505151436 54 147 0.0 0.0 0.00 0.00 0.00 74 1015.1
20260505150935 54 147 0.0 0.0 0.00 0.00 0.00 74 1014.9
20260505150437 54 147 0.0 0.0 0.00 0.00 0.00 75 1015.1
20260505140438 53 305 0.0 0.0 0.00 0.00 0.00 80 1014.5
20260505124930 53 305 0.0 0.0 0.00 0.00 0.00 82 1014.3
20260505124713 53 305 0.0 0.0 0.00 0.00 0.00 82 1014.5
20260505123928 53 305 0.0 0.0 0.00 0.00 0.00 82 1014.4
20260505123427 53 305 0.0 0.0 0.00 0.00 0.00 82 1014.4
20260505122925 53 305 0.0 0.0 0.00 0.00 0.00 82 1014.5
20260505122424 53 305 0.0 0.0 0.00 0.00 0.00 82 1014.5
20260505122158 53 305 0.0 0.0 0.00 0.00 0.00 82 1014.5
20260505121423 53 305 0.0 0.0 0.00 0.00 0.00 82 1014.4
20260505120923 53 305 0.0 0.0 0.00 0.00 0.00 83 1014.5
20260505120422 53 305 0.0 0.0 0.00 0.00 0.00 82 1014.5
20260505115922 53 305 0.0 0.0 0.00 0.00 0.00 83 1014.6
20260505115422 53 305 0.0 0.0 0.00 0.00 0.00 82 1014.6
20260505114924 53 305 0.0 0.0 0.00 0.00 0.00 82 1014.6
20260505114424 53 305 0.0 0.0 0.00 0.00 0.00 82 1014.7
20260505114215 0 305 0.0 0.0 0.00 0.00 0.00 1014.7
20260505113423 0 305 0.0 0.0 0.00 0.00 0.00 1014.7
20260505112924 0 305 0.0 0.0 0.00 0.00 0.00 1014.6
20260505112423 53 305 0.0 0.0 0.00 0.00 0.00 80 1014.6
20260505111923 53 305 0.0 0.0 0.00 0.00 0.00 80 1014.5
20260505111423 53 305 0.0 0.0 0.00 0.00 0.00 80 1014.6
20260505110924 53 305 0.0 0.0 0.00 0.00 0.00 80 1014.6
20260505110423 53 305 0.0 0.0 0.00 0.00 0.00 79 1014.4
20260505101923 53 305 0.0 0.0 0.00 0.00 0.00 79 1014.4
20260505101424 53 305 0.0 0.0 0.00 0.00 0.00 79 1014.5
20260505100922 53 305 0.0 0.0 0.00 0.00 0.00 79 1014.7
20260505100423 53 305 0.0 0.0 0.00 0.00 0.00 78 1014.6
20260505095921 53 305 0.0 0.0 0.00 0.00 0.00 78 1014.6
20260505095725 53 305 0.0 0.0 0.00 0.00 0.00 78 1014.6
20260505094921 0 305 0.0 0.0 0.00 0.00 0.00 1014.6
20260505094421 54 305 0.0 0.0 0.00 0.00 0.00 74 1014.6
20260505093922 54 305 0.0 0.0 0.00 0.00 0.00 74 1014.7
20260505093407 54 305 0.0 0.0 0.00 0.00 0.00 74 1014.7
20260505092908 54 305 0.0 0.0 0.00 0.00 0.00 73 1014.8
20260505092408 54 305 0.0 0.0 0.00 0.00 0.00 73 1014.7
20260505091909 54 305 0.0 0.0 0.00 0.00 0.00 72 1014.7
20260505091408 54 0.0 0.0 0.00 0.00 0.00 72 1014.7
20260505091154 54 0.0 0.0 0.00 0.00 0.00 72 1014.9
20260505090405 54 0.0 0.0 0.00 0.00 0.00 72 1015.0
20260505090145 54 0.0 0.0 0.00 0.00 0.00 72 1015.0
20260505085356 54 305 0.0 0.0 0.00 0.00 0.00 72 1015.0
20260505084855 54 305 0.0 1.0 0.00 0.00 0.00 72 1015.1
20260505084354 54 338 0.0 1.0 0.00 0.00 0.00 73 1015.1
20260505084145 54 309 0.0 5.0 0.00 0.00 0.00 74 1015.2
20260505083355 54 0 1.0 5.0 0.00 0.00 0.00 74 1015.3
20260505082855 54 353 0.0 3.0 0.00 0.00 0.00 75 1015.3
20260505082356 54 312 0.0 3.0 0.00 0.00 0.00 75 1015.3
20260505081855 54 330 0.0 0.0 0.00 0.00 0.00 76 1015.2
20260505081355 54 351 0.0 0.0 0.00 0.00 0.00 76 1015.3
20260505080840 54 305 0.0 0.0 0.00 0.00 0.00 77 1015.3
20260505080632 0 305 0.0 1.0 0.00 0.00 0.00 1015.4
20260505075831 0 282 0.0 1.0 0.00 0.00 0.00 1015.5
20260505075329 54 303 0.0 0.0 0.00 0.00 0.00 77 1015.4
20260505075122 54 303 0.0 0.0 0.00 0.00 0.00 77 1015.4
20260505074330 54 303 0.0 0.0 0.00 0.00 0.00 76 1015.3
20260505073829 54 303 0.0 0.0 0.00 0.00 0.00 77 1015.4
20260505073330 54 0.0 0.0 0.00 0.00 0.00 77 1015.3
20260505072831 54 303 0.0 0.0 0.00 0.00 0.00 76 1015.3
20260505072602 54 303 0.0 0.0 0.00 0.00 0.00 76 1015.2
20260505071802 54 303 0.0 0.0 0.00 0.00 0.00 76 1015.2
20260505071302 54 0.0 0.0 0.00 0.00 0.00 76 1015.2
20260505070803 0 0.0 0.0 0.00 0.00 0.00 1015.1
20260505070302 54 0.0 0.0 0.00 0.00 0.00 75 1014.9
20260505065803 54 303 0.0 0.0 0.00 0.00 0.00 75 1014.9
20260505065303 0 303 0.0 0.0 0.00 0.00 0.00 1015.1
20260505064801 55 303 0.0 0.0 0.00 0.00 0.00 75 1015.0
20260505064303 55 299 0.0 0.0 0.00 0.00 0.00 75 1015.1
20260505063803 55 299 0.0 0.0 0.00 0.00 0.00 75 1015.0
20260505063542 55 299 0.0 0.0 0.00 0.00 0.00 74 1015.0
20260505062802 55 299 0.0 0.0 0.00 0.00 0.00 74 1014.9
20260505062304 55 299 0.0 0.0 0.00 0.00 0.00 73 1014.8
20260505061731 55 299 0.0 0.0 0.00 0.00 0.00 73 1014.7
20260505061230 55 299 0.0 0.0 0.00 0.00 0.00 73 1014.8
20260505060744 55 300 0.0 0.0 0.00 0.00 0.00 73 1014.7
20260505060740 55 299 0.0 0.0 0.00 0.00 0.00 73 1014.7
20260505055710 56 299 0.0 0.0 0.00 0.00 0.00 72 1014.8
20260505055444 56 299 0.0 0.0 0.00 0.00 0.00 72 1014.9
20260505054710 56 299 0.0 1.0 0.00 0.00 0.00 72 1015.0
20260505054210 56 299 0.0 1.0 0.00 0.00 0.00 71 1015.0
20260505053708 56 300 0.0 0.0 0.00 0.00 0.00 72 1015.0
20260505053210 56 334 0.0 0.0 0.00 0.00 0.00 72 1015.2
20260505052942 56 316 0.0 0.0 0.00 0.00 0.00 72 1015.3
20260505052208 56 303 0.0 0.0 0.00 0.00 0.00 72 1015.3
20260505051709 56 303 0.0 1.0 0.00 0.00 0.00 72 1015.4
20260505051209 56 309 0.0 1.0 0.00 0.00 0.00 72 1015.3
20260505050711 56 327 0.0 0.0 0.00 0.00 0.00 72 1015.3
20260505050211 56 0.0 0.0 0.00 0.00 0.00 71 1015.4
20260505041212 57 269 0.0 4.0 0.00 0.00 0.00 65 1014.9
20260505040709 58 330 1.0 4.0 0.00 0.00 0.00 64 1014.8
20260505040209 58 16 0.0 2.0 0.00 0.00 0.00 64 1014.8
20260505035710 58 298 0.0 2.0 0.00 0.00 0.00 64 1014.6
20260505035208 58 351 0.0 0.0 0.00 0.00 0.00 63 1014.6
20260505034713 58 314 0.0 0.0 0.00 0.00 0.00 63 1014.5
20260505034209 58 302 0.0 0.0 0.00 0.00 0.00 63 1014.3
20260505033709 58 285 0.0 0.0 0.00 0.00 0.00 63 1014.3
20260505033209 58 283 0.0 0.0 0.00 0.00 0.00 64 1014.2
20260505032709 58 286 0.0 0.0 0.00 0.00 0.00 64 1014.2
20260505032208 58 281 0.0 0.0 0.00 0.00 0.00 64 1014.1
20260505031708 58 327 0.0 0.0 0.00 0.00 0.00 64 1014.0
20260505031210 59 327 0.0 0.0 0.00 0.00 0.00 65 1014.1
20260505030710 59 327 0.0 0.0 0.00 0.00 0.00 65 1014.1
20260505030210 59 317 0.0 0.0 0.00 0.00 0.00 67 1014.1
20260505025710 59 317 0.0 0.0 0.00 0.00 0.00 67 1014.2
20260505025210 59 317 0.0 0.0 0.00 0.00 0.00 67 1014.1
20260505024712 59 317 0.0 0.0 0.00 0.00 0.00 67 1014.2
20260505024212 58 317 0.0 0.0 0.00 0.00 0.00 66 1014.0
20260505023711 58 353 0.0 1.0 0.00 0.00 0.00 67 1014.0
20260505023212 59 286 0.0 1.0 0.00 0.00 0.00 65 1014.0
20260505022711 60 0 0.0 5.0 0.00 0.00 0.00 62 1014.1
20260505022212 60 353 0.0 5.0 0.00 0.00 0.00 62 1013.9
20260505021712 60 324 0.0 2.0 0.00 0.00 0.00 62 1013.9
20260505021504 60 0 1.0 5.0 0.00 0.00 0.00 62 1014.1
20260505020711 60 289 1.0 5.0 0.00 0.00 0.00 62 1013.9
20260505020212 60 285 0.0 0.0 0.00 0.00 0.00 61 1013.8
20260505015712 61 320 0.0 0.0 0.00 0.00 0.00 60 1013.9
20260505015205 61 327 0.0 0.0 0.00 0.00 0.00 61 1013.9
20260505014658 61 10 0.0 0.0 0.00 0.00 0.00 61 1013.8
20260505014157 61 330 0.0 0.0 0.00 0.00 0.00 61 1013.9
20260505013953 61 330 0.0 0.0 0.00 0.00 0.00 60 1013.9
20260505013158 61 30 0.0 0.0 0.00 0.00 0.00 60 1013.9
20260505012657 61 326 0.0 0.0 0.00 0.00 0.00 60 1013.9
20260505012157 62 279 0.0 0.0 0.00 0.00 0.00 60 1014.0
20260505011950 62 283 0.0 0.0 0.00 0.00 0.00 60 1014.0
20260505011453 62 330 0.0 0.0 0.00 0.00 0.00 58 1014.1
20260505010657 63 24 0.0 0.0 0.00 0.00 0.00 59 1014.1
20260505010157 62 338 0.0 0.0 0.00 0.00 0.00 60 1014.1
20260505005657 62 0 0.0 0.0 0.00 0.00 0.00 60 1014.1
20260505005156 62 0 0.0 0.0 0.00 0.00 0.00 60 1014.2
20260505004657 62 341 0.0 0.0 0.00 0.00 0.00 60 1014.2
20260505004157 62 295 0.0 0.0 0.00 0.00 0.00 60 1014.2
20260505003657 62 331 0.0 0.0 0.00 0.00 0.00 60 1014.3
20260505003157 62 305 0.0 0.0 0.00 0.00 0.00 60 1014.1
20260505002656 62 355 0.0 0.0 0.00 0.00 0.00 60 1014.2
20260505002447 63 351 0.0 1.0 0.00 0.00 0.00 60 1014.2
20260505001656 63 0 0.0 1.0 0.00 0.00 0.00 59 1014.2
20260505001157 63 326 0.0 0.0 0.00 0.00 0.00 59 1014.2
20260505000657 63 333 0.0 1.0 0.00 0.00 0.00 61 1014.1
20260505000446 63 334 0.0 1.0 0.00 0.00 0.00 60 1014.1
20260504235735 63 302 0.0 4.0 0.00 0.00 0.00 63 1014.1
20260504235722 63 1 0.0 0.0 0.00 0.00 0.00 61 1014.1
20260504234656 62 350 0.0 4.0 0.00 0.00 0.00 64 1014.0
20260504234158 61 314 0.0 0.0 0.00 0.00 0.00 65 1014.2
20260504234007 60 0 0.0 0.0 0.00 0.00 0.00 65 1014.2
20260504233157 60 353 0.0 0.0 0.00 0.00 0.00 66 1014.2
20260504232657 60 20 0.0 0.0 0.00 0.00 0.00 66 1014.1
20260504232156 60 331 0.0 0.0 0.00 0.00 0.00 66 1014.1
20260504231658 60 324 0.0 5.0 0.00 0.00 0.00 66 1014.2
20260504231156 61 330 0.0 5.0 0.00 0.00 0.00 65 1014.1
20260504230658 62 323 1.0 3.0 0.00 0.00 0.00 61 1014.1
20260504230158 62 0 0.0 3.0 0.00 0.00 0.00 59 1014.2
20260504225946 62 319 0.0 0.0 0.00 0.00 0.00 59 1014.2
20260504225158 62 319 0.0 0.0 0.00 0.00 0.00 59 1014.2
20260504224658 62 321 0.0 0.0 0.00 0.00 0.00 59 1014.0
20260504224158 63 309 0.0 0.0 0.00 0.00 0.00 59 1014.0
20260504223658 63 0.0 0.0 0.00 0.00 0.00 58 1014.1
20260504223157 63 355 0.0 0.0 0.00 0.00 0.00 59 1014.2
20260504222658 63 355 0.0 0.0 0.00 0.00 0.00 59 1014.3
20260504222157 63 17 0.0 0.0 0.00 0.00 0.00 59 1014.3
20260504221656 63 306 0.0 0.0 0.00 0.00 0.00 59 1014.2
20260504221158 63 310 0.0 0.0 0.00 0.00 0.00 58 1014.2
20260504220656 63 303 0.0 0.0 0.00 0.00 0.00 59 1014.3
20260504220157 63 302 0.0 0.0 0.00 0.00 0.00 59 1014.3
20260504215658 63 290 0.0 0.0 0.00 0.00 0.00 58 1014.5
20260504215504 64 0 0.0 0.0 0.00 0.00 0.00 58 1014.4
20260504214655 64 331 0.0 0.0 0.00 0.00 0.00 57 1014.5
20260504214155 65 350 0.0 0.0 0.00 0.00 0.00 58 1014.5
20260504213655 65 0 0.0 0.0 0.00 0.00 0.00 58 1014.6
20260504213153 64 347 0.0 0.0 0.00 0.00 0.00 57 1014.7
20260504212948 65 347 0.0 0.0 0.00 0.00 0.00 57 1014.6
20260504212154 65 347 0.0 0.0 0.00 0.00 0.00 57 1014.7
20260504211654 65 319 0.0 0.0 0.00 0.00 0.00 58 1014.7
20260504211154 62 319 0.0 0.0 0.00 0.00 0.00 62 1014.7
20260504210939 62 295 0.0 0.0 0.00 0.00 0.00 61 1014.7
20260504210144 62 338 0.0 0.0 0.00 0.00 0.00 62 1014.8
20260504205641 62 350 0.0 0.0 0.00 0.00 0.00 61 1014.8
20260504205140 62 293 0.0 0.0 0.00 0.00 0.00 61 1014.9
20260504204640 62 293 0.0 0.0 0.00 0.00 0.00 61 1014.9
20260504204139 62 347 0.0 0.0 0.00 0.00 0.00 60 1014.8
20260504203641 62 316 0.0 0.0 0.00 0.00 0.00 60 1014.8
20260504203140 62 0 0.0 0.0 0.00 0.00 0.00 60 1014.8
20260504202642 62 348 0.0 4.0 0.00 0.00 0.00 59 1014.7
20260504202143 62 330 0.0 4.0 0.00 0.00 0.00 59 1014.7
20260504201643 62 302 0.0 1.0 0.00 0.00 0.00 59 1014.7
20260504201142 62 355 0.0 1.0 0.00 0.00 0.00 59 1014.9
20260504200642 62 353 0.0 0.0 0.00 0.00 0.00 59 1014.7
20260504200446 61 0 0.0 0.0 0.00 0.00 0.00 61 1014.7
20260504195643 61 358 0.0 2.0 0.00 0.00 0.00 61 1014.9
20260504195143 61 317 0.0 2.0 0.00 0.00 0.00 60 1014.9
20260504194643 61 336 0.0 3.0 0.00 0.00 0.00 60 1014.9
20260504194143 61 354 0.0 3.0 0.00 0.00 0.00 60 1014.9
20260504193643 61 0 0.0 7.0 0.00 0.00 0.00 60 1014.8
20260504193142 62 320 0.0 7.0 0.00 0.00 0.00 59 1014.8
20260504192933 62 336 1.0 6.0 0.00 0.00 0.00 55 1014.7
20260504192430 62 319 0.0 6.0 0.00 0.00 0.00 55 1014.8
20260504191643 63 0 1.0 3.0 0.00 0.00 0.00 55 1014.9
20260504191143 63 117 0.0 0.0 0.00 0.00 0.00 53 1014.8
20260504190916 63 117 0.0 0.0 0.00 0.00 0.00 53 1014.8
20260504190143 64 344 0.0 0.0 0.00 0.00 0.00 51 1014.8